Weather History for KNBC - August, 2014

Change the Weather History Date:

Sunday, August 24, 2014

  Actual Average Record
Temperature  
Mean Temperature 82 °F -  
Max Temperature 90 °F 88 °F 101 °F (1968)
Min Temperature 77 °F 72 °F 35 °F (2005)
Cooling Degree Days 18    
Growing Degree Days 32 (Base 50)    
Moisture  
Dew Point 72 °F    
Average Humidity 72    
Maximum Humidity 94    
Minimum Humidity 55    
Precipitation  
Precipitation 0.00 in - - ()
Sea Level Pressure  
Sea Level Pressure 29.91 in    
Wind  
Wind Speed 8 mph (East)    
Max Wind Speed 15 mph    
Max Gust Speed 23 mph    
Visibility 10 miles    
Events Thunderstorm    
Averages and records for this station are not official NWS values.
T = Trace of Precipitation, MM = Missing Value Source: NWS Daily Summary

Daily Weather History Graph

Daily Weather History Graph

Search for Another Location

Airport or City:

Trip Planner

Search our weather history database for the weather conditions in past years. The results will help you decide how hot, cold, wet, or windy it might be!

Date:

Astronomy

Aug. 24, 2014 Rise Set
Actual Time 6:52 AM EDT 7:57 PM EDT
Civil Twilight 6:27 AM EDT 8:22 PM EDT
Nautical Twilight 5:57 AM EDT 8:52 PM EDT
Astronomical Twilight 5:25 AM EDT 9:23 PM EDT
Moon 6:01 AM EDT (8/24) 7:16 PM EDT (8/24)
Length of Visible Light 13h 55m
Length of Day
13h 04m
Waning Crescent, 1% of the Moon is Illuminated
Aug 24
Waning Crescent
Aug 25
New
Sep 2
First Quarter
Sep 8
Full
Sep 15
Last Quarter

Hourly Weather History & Observations

Time (EDT) Temp. Heat Index Dew Point Humidity Pressure Visibility Wind Dir Wind Speed Gust Speed Precip Events Conditions
12:56 AM 82.0 °F 89.4 °F 75.9 °F 82% 29.87 in 10.0 mi Calm Calm - N/A   Clear
1:43 AM 81.0 °F 86.2 °F 73.9 °F 79% 29.86 in 10.0 mi ENE 4.6 mph - N/A Thunderstorm Thunderstorm
1:56 AM 81.0 °F 86.7 °F 75.0 °F 82% 29.86 in 10.0 mi ENE 4.6 mph - N/A   Clear
2:56 AM 80.1 °F 85.8 °F 77.0 °F 90% 29.85 in 10.0 mi East 4.6 mph - N/A   Clear
3:56 AM 79.0 °F - 77.0 °F 94% 29.84 in 10.0 mi East 11.5 mph - N/A   Clear
4:56 AM 79.0 °F - 73.9 °F 84% 29.84 in 10.0 mi East 8.1 mph - N/A   Clear
5:56 AM 78.1 °F - 73.9 °F 87% 29.85 in 10.0 mi East 11.5 mph - N/A   Clear
6:17 AM 78.1 °F - 75.0 °F 90% 29.85 in 10.0 mi ENE 8.1 mph - N/A   Scattered Clouds
6:39 AM 77.0 °F - 75.0 °F 94% 29.86 in 10.0 mi East 10.4 mph - N/A   Mostly Cloudy
6:56 AM 78.1 °F - 75.0 °F 90% 29.87 in 10.0 mi East 10.4 mph - N/A   Overcast
7:56 AM 78.1 °F - 73.9 °F 87% 29.91 in 10.0 mi East 11.5 mph - N/A   Overcast
8:44 AM 79.0 °F - 73.9 °F 84% 29.92 in 10.0 mi East 12.7 mph - N/A   Overcast
8:56 AM 79.0 °F - 73.9 °F 84% 29.92 in 10.0 mi East 12.7 mph - N/A   Overcast
9:37 AM 82.9 °F 89.4 °F 73.9 °F 74% 29.92 in 10.0 mi East 12.7 mph - N/A   Scattered Clouds
9:56 AM 84.0 °F 90.2 °F 73.0 °F 69% 29.92 in 10.0 mi East 12.7 mph - N/A   Partly Cloudy
10:56 AM 84.0 °F 89.0 °F 71.1 °F 65% 29.94 in 10.0 mi East 11.5 mph 23.0 mph N/A   Partly Cloudy
11:30 AM 84.9 °F 90.1 °F 71.1 °F 63% 29.94 in 10.0 mi East 13.8 mph - N/A   Mostly Cloudy
11:38 AM 84.9 °F 90.1 °F 71.1 °F 63% 29.94 in 10.0 mi East 13.8 mph - N/A   Scattered Clouds
11:56 AM 86.0 °F 91.5 °F 71.1 °F 61% 29.95 in 10.0 mi East 13.8 mph - N/A   Partly Cloudy
12:37 PM 86.0 °F 91.5 °F 71.1 °F 61% 29.94 in 10.0 mi East 12.7 mph - N/A   Mostly Cloudy
12:49 PM 86.0 °F 90.7 °F 70.0 °F 59% 29.95 in 10.0 mi East 10.4 mph - N/A   Mostly Cloudy
12:56 PM 86.0 °F 91.5 °F 71.1 °F 61% 29.95 in 10.0 mi East 13.8 mph - N/A   Mostly Cloudy
1:56 PM 88.0 °F 92.9 °F 70.0 °F 55% 29.94 in 10.0 mi East 12.7 mph 17.3 mph N/A   Mostly Cloudy
2:56 PM 88.0 °F 92.9 °F 70.0 °F 55% 29.93 in 10.0 mi East 13.8 mph - N/A   Mostly Cloudy
3:56 PM 86.0 °F 90.1 °F 69.1 °F 57% 29.93 in 10.0 mi East 8.1 mph - N/A   Mostly Cloudy
4:56 PM 86.0 °F 89.4 °F 68.0 °F 55% 29.92 in 10.0 mi East 12.7 mph - N/A   Mostly Cloudy
5:56 PM 87.1 °F 91.3 °F 69.1 °F 55% 29.92 in 10.0 mi East 15.0 mph - N/A   Mostly Cloudy
6:56 PM 84.9 °F 88.8 °F 69.1 °F 59% 29.92 in 10.0 mi East 13.8 mph 19.6 mph N/A   Scattered Clouds
7:56 PM 82.0 °F 85.5 °F 69.1 °F 65% 29.92 in 10.0 mi East 9.2 mph - N/A   Clear
8:11 PM 82.0 °F 85.5 °F 69.1 °F 65% 29.92 in 10.0 mi East 8.1 mph - N/A   Mostly Cloudy
8:56 PM 82.0 °F 85.5 °F 69.1 °F 65% 29.94 in 10.0 mi East 9.2 mph - N/A   Mostly Cloudy
9:56 PM 81.0 °F 83.8 °F 68.0 °F 65% 29.97 in 10.0 mi East 10.4 mph 19.6 mph N/A   Mostly Cloudy
10:56 PM 78.1 °F - 68.0 °F 71% 29.99 in 10.0 mi East 9.2 mph - N/A   Clear
11:56 PM 78.1 °F - 66.0 °F 66% 29.99 in 10.0 mi East 9.2 mph - N/A   Clear